• In Uzbekistan
  • List of Countries
  • For 7 days
  • Water Temperature
  • Satellite Maps
  • Weather Map
  • Weather Widgets
  • user-avatar
    Login

    Hourly Weather Maseru

    Today, 25 June, Monday

    Time Temperature Precipitation Wind Pressure Humidity
    00:00 +6°C° 0 mm 1 mps 636 mmHg 42%
    01:00 +6°C° 0 mm 1 mps 636 mmHg 43%
    02:00 +5°C° 0 mm 1 mps 636 mmHg 47%
    03:00 +5°C° 0 mm 1 mps 636 mmHg 47%
    04:00 +5°C° 0 mm 1 mps 636 mmHg 47%
    05:00 +5°C° 0 mm 1 mps 636 mmHg 47%
    06:00 +6°C° 0 mm 1 mps 636 mmHg 43%
    07:00 +6°C° 0 mm 1 mps 637 mmHg 39%
    08:00 +7°C° 0 mm 1 mps 637 mmHg 36%
    09:00 +10°C° 0 mm 1 mps 638 mmHg 30%
    10:00 +13°C° 0 mm 1 mps 639 mmHg 25%
    11:00 +16°C° 0 mm 1 mps 640 mmHg 20%
    12:00 +18°C° 0 mm 1 mps 640 mmHg 19%
    13:00 +18°C° 0 mm 1 mps 639 mmHg 19%
    14:00 +18°C° 0 mm 2 mps 639 mmHg 18%
    15:00 +16°C° 0 mm 1 mps 639 mmHg 22%
    16:00 +15°C° 0 mm 1 mps 638 mmHg 26%
    17:00 +13°C° 0 mm 1 mps 637 mmHg 30%
    18:00 +12°C° 0 mm 1 mps 637 mmHg 31%
    19:00 +9°C° 0 mm 0 mps 637 mmHg 33%
    20:00 +8°C° 0 mm 0 mps 637 mmHg 35%
    21:00 +7°C° 0 mm 0 mps 637 mmHg 36%
    22:00 +8°C° 0 mm 1 mps 637 mmHg 37%
    23:00 +8°C° 0 mm 1 mps 637 mmHg 39%

    Tomorrow, 26 June, Tuesday

    Time Temperature Precipitation Wind Pressure Humidity
    00:00 +7°C° 0 mm 1 mps 637 mmHg 38%
    01:00 +7°C° 0 mm 1 mps 637 mmHg 37%
    02:00 +7°C° 0 mm 1 mps 637 mmHg 37%
    03:00 +7°C° 0 mm 1 mps 637 mmHg 37%
    04:00 +6°C° 0 mm 1 mps 637 mmHg 38%
    05:00 +6°C° 0 mm 1 mps 637 mmHg 38%
    06:00 +6°C° 0 mm 1 mps 637 mmHg 37%
    07:00 +7°C° 0 mm 1 mps 638 mmHg 35%
    08:00 +8°C° 0 mm 1 mps 638 mmHg 34%
    09:00 +10°C° 0 mm 2 mps 639 mmHg 30%
    10:00 +13°C° 0 mm 3 mps 640 mmHg 26%
    11:00 +17°C° 0 mm 4 mps 641 mmHg 21%
    12:00 +17°C° 0 mm 4 mps 640 mmHg 22%
    13:00 +18°C° 0 mm 4 mps 640 mmHg 22%
    14:00 +17°C° 0 mm 5 mps 639 mmHg 22%
    15:00 +17°C° 0 mm 4 mps 639 mmHg 26%
    16:00 +16°C° 0 mm 3 mps 639 mmHg 29%
    17:00 +15°C° 0 mm 2 mps 638 mmHg 32%
    18:00 +13°C° 0 mm 2 mps 638 mmHg 35%
    19:00 +12°C° 0 mm 1 mps 638 mmHg 38%
    20:00 +11°C° 0 mm 1 mps 638 mmHg 41%
    21:00 +10°C° 0 mm 1 mps 638 mmHg 42%
    22:00 +10°C° 0 mm 1 mps 638 mmHg 44%
    23:00 +9°C° 0 mm 1 mps 638 mmHg 45%

    Day after tomorrow, 27 June, Wednesday

    Time Temperature Precipitation Wind Pressure Humidity
    00:00 +9°C° 0 mm 1 mps 637 mmHg 47%
    01:00 +8°C° 0 mm 2 mps 637 mmHg 48%
    02:00 +7°C° 0 mm 2 mps 637 mmHg 49%
    03:00 +7°C° 0 mm 2 mps 637 mmHg 53%
    04:00 +6°C° 0 mm 2 mps 637 mmHg 56%
    05:00 +7°C° 0 mm 1 mps 636 mmHg 59%
    06:00 +7°C° 0 mm 1 mps 637 mmHg 59%
    07:00 +8°C° 0 mm 1 mps 638 mmHg 58%
    08:00 +9°C° 0 mm 1 mps 638 mmHg 57%
    09:00 +10°C° 0 mm 2 mps 639 mmHg 51%
    10:00 +12°C° 0 mm 3 mps 639 mmHg 44%
    11:00 +16°C° 0 mm 3 mps 640 mmHg 37%
    12:00 +17°C° 0 mm 4 mps 639 mmHg 35%
    13:00 +16°C° 0 mm 5 mps 639 mmHg 33%
    14:00 +17°C° 0 mm 5 mps 639 mmHg 31%
    15:00 +17°C° 0 mm 4 mps 638 mmHg 34%
    16:00 +16°C° 0 mm 3 mps 638 mmHg 37%
    17:00 +15°C° 0 mm 2 mps 637 mmHg 39%
    18:00 +14°C° 0 mm 2 mps 637 mmHg 42%
    19:00 +12°C° 0 mm 1 mps 637 mmHg 44%
    20:00 +11°C° 0 mm 1 mps 637 mmHg 47%
    21:00 +10°C° 0 mm 1 mps 637 mmHg 49%
    22:00 +9°C° 0 mm 1 mps 637 mmHg 52%
    23:00 +9°C° 0 mm 1 mps 636 mmHg 55%

    28 June, Thursday

    Time Temperature Precipitation Wind Pressure Humidity
    00:00 +8°C° 0 mm 1 mps 636 mmHg 58%
    01:00 +7°C° 0 mm 1 mps 636 mmHg 61%
    02:00 +7°C° 0 mm 1 mps 636 mmHg 64%
    03:00 +7°C° 0 mm 1 mps 635 mmHg 66%
    04:00 +6°C° 0 mm 1 mps 635 mmHg 68%
    05:00 +6°C° 0 mm 1 mps 635 mmHg 71%
    06:00 +7°C° 0 mm 1 mps 636 mmHg 65%
    07:00 +7°C° 0 mm 1 mps 637 mmHg 60%
    08:00 +8°C° 0 mm 1 mps 637 mmHg 55%
    09:00 +11°C° 0 mm 1 mps 638 mmHg 46%
    10:00 +14°C° 0 mm 2 mps 639 mmHg 37%
    11:00 +16°C° 0 mm 2 mps 640 mmHg 28%
    12:00 +17°C° 0 mm 3 mps 640 mmHg 26%
    13:00 +18°C° 0 mm 3 mps 639 mmHg 24%
    14:00 +18°C° 0 mm 4 mps 639 mmHg 22%
    15:00 +17°C° 0 mm 3 mps 638 mmHg 25%
    16:00 +16°C° 0 mm 2 mps 638 mmHg 27%
    17:00 +15°C° 0 mm 2 mps 637 mmHg 30%
    18:00 +13°C° 0 mm 1 mps 637 mmHg 33%
    19:00 +11°C° 0 mm 1 mps 636 mmHg 37%
    20:00 +9°C° 0 mm 1 mps 636 mmHg 40%
    21:00 +9°C° 0 mm 1 mps 636 mmHg 42%
    22:00 +9°C° 0 mm 1 mps 636 mmHg 43%
    23:00 +8°C° 0 mm 1 mps 635 mmHg 45%

    29 June, Friday

    Time Temperature Precipitation Wind Pressure Humidity
    00:00 +8°C° 0 mm 1 mps 635 mmHg 46%
    01:00 +8°C° 0 mm 1 mps 635 mmHg 47%
    02:00 +7°C° 0 mm 1 mps 634 mmHg 47%
    03:00 +7°C° 0 mm 1 mps 634 mmHg 48%
    04:00 +7°C° 0 mm 1 mps 634 mmHg 49%
    05:00 +6°C° 0 mm 1 mps 634 mmHg 50%
    06:00 +7°C° 0 mm 1 mps 635 mmHg 49%
    07:00 +8°C° 0 mm 1 mps 635 mmHg 47%
    08:00 +8°C° 0 mm 1 mps 636 mmHg 45%
    09:00 +10°C° 0 mm 2 mps 636 mmHg 38%
    10:00 +13°C° 0 mm 2 mps 637 mmHg 30%
    11:00 +16°C° 0 mm 2 mps 638 mmHg 22%
    12:00 +16°C° 0 mm 3 mps 637 mmHg 20%
    13:00 +17°C° 0 mm 4 mps 637 mmHg 17%
    14:00 +18°C° 0 mm 4 mps 637 mmHg 15%
    15:00 +17°C° 0 mm 4 mps 636 mmHg 17%
    16:00 +14°C° 0 mm 3 mps 636 mmHg 20%
    17:00 +14°C° 0 mm 2 mps 635 mmHg 22%
    18:00 +12°C° 0 mm 2 mps 635 mmHg 24%
    19:00 +11°C° 0 mm 1 mps 635 mmHg 27%
    20:00 +9°C° 0 mm 1 mps 634 mmHg 29%
    21:00 +9°C° 0 mm 1 mps 634 mmHg 29%
    22:00 +8°C° 0 mm 1 mps 634 mmHg 29%
    23:00 +8°C° 0 mm 1 mps 634 mmHg 29%

    30 June, Saturday

    Time Temperature Precipitation Wind Pressure Humidity
    00:00 +8°C° 0 mm 1 mps 634 mmHg 31%
    01:00 +7°C° 0 mm 1 mps 633 mmHg 32%
    02:00 +6°C° 0 mm 1 mps 633 mmHg 34%
    03:00 +6°C° 0 mm 1 mps 633 mmHg 36%
    04:00 +6°C° 0 mm 1 mps 633 mmHg 39%
    05:00 +5°C° 0 mm 1 mps 633 mmHg 41%
    06:00 +6°C° 0 mm 1 mps 633 mmHg 40%
    07:00 +6°C° 0 mm 1 mps 634 mmHg 38%
    08:00 +7°C° 0 mm 1 mps 635 mmHg 36%
    09:00 +10°C° 0 mm 1 mps 636 mmHg 31%
    10:00 +13°C° 0 mm 1 mps 637 mmHg 25%
    11:00 +15°C° 0 mm 1 mps 638 mmHg 20%
    12:00 +16°C° 0 mm 1 mps 638 mmHg 20%
    13:00 +16°C° 0 mm 2 mps 637 mmHg 21%
    14:00 +17°C° 0 mm 2 mps 637 mmHg 21%
    15:00 +16°C° 0 mm 2 mps 637 mmHg 25%
    16:00 +14°C° 0 mm 1 mps 637 mmHg 29%
    17:00 +13°C° 0 mm 1 mps 636 mmHg 33%
    18:00 +12°C° 0 mm 1 mps 636 mmHg 34%
    19:00 +10°C° 0 mm 1 mps 636 mmHg 36%
    20:00 +9°C° 0 mm 1 mps 636 mmHg 37%
    21:00 +8°C° 0 mm 1 mps 636 mmHg 38%
    22:00 +8°C° 0 mm 1 mps 636 mmHg 39%
    23:00 +8°C° 0 mm 1 mps 636 mmHg 40%
    Show more